Location: Unspecified
(0.0000°N, 0.0000°E)
Time: 14:11:40
(UTC+00:00)

CZ-3B DEB - Pass Details

Date: 15 February 2026
Orbit: 979 x 42142 km, 20.1° (Epoch: 15 November)

Event Time Altitude Azimuth Distance (km) Brightness Sun altitude
Rises 05:14:58 0° 107° (ESE) 45,533 ? -14.4°
Reaches altitude 10° 06:29:04 10° 109° (ESE) 46,735 ? 3.6°
Maximum altitude 10:59:42 37° 119° (ESE) 30,094 ? 67.7°
Drops below altitude 10° 12:40:34 10° 104° (ESE) 14,145 ? 75.8°
Sets 12:49:19 0° 101° (E) 12,916 ? 74.7°
